This demonstration page uses our WeatherBlox Daily Observations layout. Learn more.

Left ArrowRight Arrow

31.31129, -92.44514

Hourly Observations for October 2, 2022

Temp ( °F °C ) Dew Point ( °F °C ) Humidity (%) Winds ( mph kmh ) Pressure ( in mb ) Visibility ( mi km ) Precip ( " mm )
12:53 am 00:53 Clear 54 12.2 48 8.9 80 80 WNW 3 6 30.06 1018 10 16 0.00 0.00
1:53 am 01:53 Clear 53 11.7 48 8.9 83 83 Calm 30.06 1018 10 16 0.00 0.00
2:53 am 02:53 Clear 53 11.7 50 10 89 89 Calm 30.06 1018 10 16 0.00 0.00
3:53 am 03:53 Clear 51 10.6 48 8.9 89 89 Calm 30.07 1018 10 16 0.00 0.00
4:53 am 04:53 Clear 49 9.4 46 7.8 90 90 NW 3 6 30.08 1019 7 11 0.00 0.00
5:53 am 05:53 Clear 50 10 47 8.3 89 89 WNW 3 6 30.09 1019 9 14 0.00 0.00
6:53 am 06:53 Clear 48 8.9 46 7.8 93 93 WNW 3 6 30.11 1020 9 14 0.00 0.00
7:53 am 07:53 Sunny 51 10.6 45 7.2 79 79 VRB 3 6 30.13 1020 10 16 0.00 0.00
8:53 am 08:53 Sunny 62 16.7 51 10.6 67 67 Calm 30.14 1021 10 16 0.00 0.00
9:53 am 09:53 Sunny 70 21.1 51 10.6 51 51 NNE 3 6 30.15 1021 10 16 0.00 0.00
10:53 am 10:53 Sunny 74 23.3 49 9.4 41 41 VRB 5 7 30.16 1021 10 16 0.00 0.00
11:53 am 11:53 Sunny 79 26.1 47 8.3 32 32 NE 7 11 30.15 1021 10 16 0.00 0.00
12:53 pm 12:53 Sunny 82 27.8 45 7.2 27 27 N 7 11 30.12 1020 10 16 0.00 0.00
1:53 pm 13:53 Sunny 84 28.9 44 6.7 25 25 N 8 13 30.10 1019 10 16 0.00 0.00
2:53 pm 14:53 Sunny 85 29.4 45 7.2 25 25 NE 10 17 30.07 1018 10 16 0.00 0.00
3:53 pm 15:53 Sunny 85 29.4 45 7.2 25 25 VRB 7 11 30.06 1018 10 16 0.00 0.00
4:53 pm 16:53 Sunny 85 29.4 45 7.2 25 25 NNE 8 13 30.06 1018 10 16 0.00 0.00
5:53 pm 17:53 Sunny 83 28.3 46 7.8 28 28 N 8 13 30.07 1018 10 16 0.00 0.00
6:53 pm 18:53 Sunny 75 23.9 51 10.6 43 43 N 5 7 30.09 1019 10 16 0.00 0.00
7:53 pm 19:53 Clear 68 20 52 11.1 57 57 N 5 7 30.09 1019 10 16 0.00 0.00
8:53 pm 20:53 Clear 67 19.4 53 11.7 61 61 N 6 9 30.10 1019 10 16 0.00 0.00
9:53 pm 21:53 Clear 61 16.1 48 8.9 62 62 NW 3 6 30.12 1020 10 16 0.00 0.00
10:53 pm 22:53 Clear 60 15.6 49 9.4 67 67 Calm 30.13 1020 10 16 0.00 0.00
11:53 pm 23:53 Clear 58 14.4 48 8.9 70 70 NNW 3 6 30.12 1020 10 16 0.00 0.00

Powered by AerisWeather